This is the latest recevied weather packets stored in our database for station/object I1SXT-13. If no packets are shown the sender has not sent any weather packets the latest 10 day(s).
| Time | Temp. | Humidity | Pressure | Rain* | Wind** | Luminosity | Snow |
|---|---|---|---|---|---|---|---|
| 1778082866 | 17.78° C | 79% | 1010.5 hPa | 34.29 mm | - | - | - |
| 1778082568 | 17.78° C | 78% | 1010.6 hPa | 34.29 mm | - | - | - |
| 1778082264 | 17.78° C | 77% | 1010.7 hPa | 34.29 mm | - | - | - |
| 1778081967 | 17.78° C | 76% | 1010.8 hPa | 34.29 mm | - | - | - |
| 1778081670 | 17.78° C | 79% | 1010.1 hPa | 34.29 mm | - | - | - |
| 1778081366 | 18.33° C | 78% | 1010 hPa | 34.29 mm | - | - | - |
| 1778081069 | 17.78° C | 79% | 1010.1 hPa | 34.29 mm | - | - | - |
| 1778080765 | 18.33° C | 77% | 1010.8 hPa | 34.29 mm | - | - | - |
| 1778080468 | 18.33° C | 77% | 1011.3 hPa | 34.29 mm | - | - | - |
| 1778080163 | 18.33° C | 79% | 1010.9 hPa | 34.29 mm | - | - | - |
| 1778079866 | 18.89° C | 74% | 1010.3 hPa | 34.29 mm | - | - | - |
| 1778079569 | 19.44° C | 74% | 1011.1 hPa | 34.29 mm | - | - | - |
| 1778079265 | 19.44° C | 75% | 1010.5 hPa | 34.29 mm | - | - | - |
| 1778078968 | 19.44° C | 74% | 1010.8 hPa | 34.29 mm | - | - | - |
| 1778078664 | 19.44° C | 74% | 1010.5 hPa | 33.53 mm | - | - | - |
| 1778078367 | 20° C | 71% | 1010.5 hPa | 33.02 mm | - | - | - |
| 1778078070 | 20° C | 72% | 1010 hPa | 33.02 mm | - | - | - |
| 1778077468 | 20° C | 72% | 1009.9 hPa | 33.02 mm | - | - | - |
| 1778077164 | 20.56° C | 70% | 1010 hPa | 33.02 mm | - | - | - |
| 1778076867 | 20.56° C | 71% | 1009.4 hPa | 33.02 mm | - | - | - |
| 1778076570 | 20.56° C | 72% | 1009.8 hPa | 33.02 mm | - | - | - |
| 1778076266 | 20° C | 72% | 1009.8 hPa | 33.02 mm | - | - | - |
| 1778075969 | 20.56° C | 74% | 1010.3 hPa | 33.02 mm | - | - | - |
| 1778075665 | 20.56° C | 73% | 1010.4 hPa | 33.02 mm | - | - | - |
| 1778075367 | 20.56° C | 71% | 1010.3 hPa | 33.02 mm | - | - | - |
* Rain since midnight (hover to see other rain measurements)
** Current wind speed in m/s (hover to see current wind gust speed)